Time,TemperatureF,DewpointF,PressureIn,WindDirection,WindDirectionDegrees,WindSpeedMPH,WindSpeedGustMPH,Humidity,HourlyPrecipIn,Conditions,Clouds,dailyrainin,SolarRadiationWatts/m^2,SoftwareType,DateUTC
2013-03-19 00:02:00,15.0,5.0,-100.00,WNW,282,12.0,22.0,64,0.00,,,0.00,0.000000,,2013-03-19 05:02:00,
2013-03-19 00:12:00,15.0,5.0,-100.00,WNW,282,12.0,22.0,64,0.00,,,0.00,0.000000,,2013-03-19 05:12:00,
2013-03-19 00:43:00,14.0,4.0,-100.00,WNW,285,11.0,22.0,64,0.00,,,0.00,0.000000,,2013-03-19 05:43:00,
2013-03-19 00:52:00,14.0,4.0,-100.00,WNW,285,11.0,22.0,64,0.00,,,0.00,0.000000,,2013-03-19 05:52:00,
2013-03-19 01:02:00,14.0,4.0,-100.00,WNW,285,11.0,22.0,64,0.00,,,0.00,0.000000,,2013-03-19 06:02:00,
2013-03-19 01:12:00,14.0,4.0,-100.00,WNW,285,11.0,22.0,64,0.00,,,0.00,0.000000,,2013-03-19 06:12:00,
2013-03-19 01:42:00,12.0,3.0,-100.00,WNW,290,9.0,21.0,65,0.00,,,0.00,0.000000,,2013-03-19 06:42:00,
2013-03-19 01:52:00,12.0,3.0,-100.00,WNW,290,9.0,21.0,65,0.00,,,0.00,0.000000,,2013-03-19 06:52:00,
2013-03-19 02:02:00,12.0,3.0,-100.00,WNW,290,9.0,21.0,65,0.00,,,0.00,0.000000,,2013-03-19 07:02:00,
2013-03-19 02:12:00,12.0,3.0,-100.00,WNW,290,9.0,21.0,65,0.00,,,0.00,0.000000,,2013-03-19 07:12:00,
2013-03-19 02:42:00,11.0,2.0,-100.00,WNW,288,9.0,19.0,65,0.00,,,0.00,0.000000,,2013-03-19 07:42:00,
2013-03-19 02:53:00,11.0,2.0,-100.00,WNW,288,9.0,19.0,65,0.00,,,0.00,0.000000,,2013-03-19 07:53:00,
2013-03-19 03:03:00,11.0,2.0,-100.00,WNW,288,9.0,19.0,65,0.00,,,0.00,0.000000,,2013-03-19 08:03:00,
2013-03-19 03:12:00,11.0,2.0,-100.00,WNW,288,9.0,19.0,65,0.00,,,0.00,0.000000,,2013-03-19 08:12:00,
2013-03-19 03:43:00,10.0,1.0,-100.00,WNW,283,8.0,17.0,67,0.00,,,0.00,0.000000,,2013-03-19 08:43:00,
2013-03-19 03:52:00,10.0,1.0,-100.00,WNW,283,8.0,17.0,67,0.00,,,0.00,0.000000,,2013-03-19 08:52:00,
2013-03-19 04:02:00,10.0,1.0,-100.00,WNW,283,8.0,17.0,67,0.00,,,0.00,0.000000,,2013-03-19 09:02:00,
2013-03-19 04:12:00,10.0,1.0,-100.00,WNW,283,8.0,17.0,67,0.00,,,0.00,0.000000,,2013-03-19 09:12:00,
2013-03-19 04:43:00,9.0,1.0,-100.00,WNW,285,8.0,19.0,68,0.00,,,0.00,0.000000,,2013-03-19 09:43:00,
2013-03-19 04:53:00,9.0,1.0,-100.00,WNW,285,8.0,19.0,68,0.00,,,0.00,0.000000,,2013-03-19 09:53:00,
2013-03-19 05:03:00,9.0,1.0,-100.00,WNW,285,8.0,19.0,68,0.00,,,0.00,0.000000,,2013-03-19 10:03:00,
2013-03-19 05:12:00,9.0,1.0,-100.00,WNW,285,8.0,19.0,68,0.00,,,0.00,0.000000,,2013-03-19 10:12:00,
2013-03-19 05:42:00,9.0,1.0,-100.00,WNW,284,7.0,16.0,69,0.00,,,0.00,0.000000,,2013-03-19 10:42:00,
2013-03-19 05:53:00,9.0,1.0,-100.00,WNW,284,7.0,16.0,69,0.00,,,0.00,0.000000,,2013-03-19 10:53:00,
2013-03-19 06:02:00,9.0,1.0,-100.00,WNW,284,7.0,16.0,69,0.00,,,0.00,0.000000,,2013-03-19 11:02:00,
2013-03-19 06:12:00,9.0,1.0,-100.00,WNW,284,7.0,16.0,69,0.00,,,0.00,0.000000,,2013-03-19 11:12:00,
2013-03-19 06:43:00,9.0,1.0,-100.00,WNW,294,7.0,15.0,68,0.00,,,0.00,0.000000,,2013-03-19 11:43:00,
2013-03-19 06:52:00,9.0,1.0,-100.00,WNW,294,7.0,15.0,68,0.00,,,0.00,0.000000,,2013-03-19 11:52:00,
2013-03-19 07:02:00,9.0,1.0,-100.00,WNW,294,7.0,15.0,68,0.00,,,0.00,0.000000,,2013-03-19 12:02:00,
2013-03-19 07:12:00,9.0,1.0,-100.00,WNW,294,7.0,15.0,68,0.00,,,0.00,0.000000,,2013-03-19 12:12:00,
2013-03-19 07:43:00,8.0,-1.0,-100.00,WNW,289,7.0,17.0,66,0.00,,,0.00,1.000000,,2013-03-19 12:43:00,
2013-03-19 07:52:00,8.0,-1.0,-100.00,WNW,289,7.0,17.0,66,0.00,,,0.00,1.000000,,2013-03-19 12:52:00,
2013-03-19 08:02:00,8.0,-1.0,-100.00,WNW,289,7.0,17.0,66,0.00,,,0.00,1.000000,,2013-03-19 13:02:00,
2013-03-19 08:12:00,8.0,-1.0,-100.00,WNW,289,7.0,17.0,66,0.00,,,0.00,1.000000,,2013-03-19 13:12:00,
2013-03-19 08:42:00,10.0,-1.0,-100.00,WNW,289,9.0,17.0,60,0.00,,,0.00,50.000000,,2013-03-19 13:42:00,
2013-03-19 08:53:00,10.0,-1.0,-100.00,WNW,289,9.0,17.0,60,0.00,,,0.00,50.000000,,2013-03-19 13:53:00,
2013-03-19 09:02:00,10.0,-1.0,-100.00,WNW,289,9.0,17.0,60,0.00,,,0.00,50.000000,,2013-03-19 14:02:00,
2013-03-19 09:12:00,10.0,-1.0,-100.00,WNW,289,9.0,17.0,60,0.00,,,0.00,50.000000,,2013-03-19 14:12:00,
2013-03-19 09:42:00,14.0,-1.0,-100.00,WNW,297,9.0,18.0,51,0.00,,,0.00,238.000000,,2013-03-19 14:42:00,
2013-03-19 09:52:00,14.0,-1.0,-100.00,WNW,297,9.0,18.0,51,0.00,,,0.00,238.000000,,2013-03-19 14:52:00,
2013-03-19 10:02:00,14.0,-1.0,-100.00,WNW,297,9.0,18.0,51,0.00,,,0.00,238.000000,,2013-03-19 15:02:00,
2013-03-19 10:12:00,14.0,-1.0,-100.00,WNW,297,9.0,18.0,51,0.00,,,0.00,238.000000,,2013-03-19 15:12:00,
2013-03-19 10:44:00,17.0,-1.0,-100.00,WNW,297,9.0,18.0,45,0.00,,,0.00,416.000000,,2013-03-19 15:44:00,
2013-03-19 10:53:00,17.0,-1.0,-100.00,WNW,297,9.0,18.0,45,0.00,,,0.00,416.000000,,2013-03-19 15:53:00,
2013-03-19 11:04:00,17.0,-1.0,-100.00,WNW,297,9.0,18.0,45,0.00,,,0.00,416.000000,,2013-03-19 16:04:00,
2013-03-19 11:13:00,17.0,-1.0,-100.00,WNW,297,9.0,18.0,45,0.00,,,0.00,416.000000,,2013-03-19 16:13:00,
2013-03-19 11:44:00,21.0,0.0,-100.00,WNW,300,12.0,20.0,39,0.00,,,0.00,568.000000,,2013-03-19 16:44:00,
2013-03-19 11:54:00,21.0,0.0,-100.00,WNW,300,12.0,20.0,39,0.00,,,0.00,568.000000,,2013-03-19 16:54:00,
2013-03-19 12:03:00,21.0,0.0,-100.00,WNW,300,12.0,20.0,39,0.00,,,0.00,568.000000,,2013-03-19 17:03:00,
2013-03-19 12:13:00,21.0,0.0,-100.00,WNW,300,12.0,20.0,39,0.00,,,0.00,568.000000,,2013-03-19 17:13:00,
2013-03-19 12:44:00,24.0,-1.0,-100.00,WNW,287,11.0,20.0,33,0.00,,,0.00,677.000000,,2013-03-19 17:44:00,
2013-03-19 12:53:00,24.0,-1.0,-100.00,WNW,287,11.0,20.0,33,0.00,,,0.00,677.000000,,2013-03-19 17:53:00,
2013-03-19 13:03:00,24.0,-1.0,-100.00,WNW,287,11.0,20.0,33,0.00,,,0.00,677.000000,,2013-03-19 18:03:00,
2013-03-19 13:13:00,24.0,-1.0,-100.00,WNW,287,11.0,20.0,33,0.00,,,0.00,677.000000,,2013-03-19 18:13:00,
2013-03-19 13:44:00,26.0,1.0,-100.00,West,272,10.0,23.0,33,0.00,,,0.00,734.000000,,2013-03-19 18:44:00,
2013-03-19 13:53:00,26.0,1.0,-100.00,West,272,10.0,23.0,33,0.00,,,0.00,734.000000,,2013-03-19 18:53:00,
2013-03-19 14:02:00,26.0,1.0,-100.00,West,272,10.0,23.0,33,0.00,,,0.00,734.000000,,2013-03-19 19:02:00,
2013-03-19 14:12:00,26.0,1.0,-100.00,West,272,10.0,23.0,33,0.00,,,0.00,734.000000,,2013-03-19 19:12:00,
2013-03-19 14:43:00,27.0,2.0,-100.00,West,270,9.0,21.0,34,0.00,,,0.00,736.000000,,2013-03-19 19:43:00,
2013-03-19 14:53:00,27.0,2.0,-100.00,West,270,9.0,21.0,34,0.00,,,0.00,736.000000,,2013-03-19 19:53:00,
2013-03-19 15:03:00,27.0,2.0,-100.00,West,270,9.0,21.0,34,0.00,,,0.00,736.000000,,2013-03-19 20:03:00,
2013-03-19 15:12:00,27.0,2.0,-100.00,West,270,9.0,21.0,34,0.00,,,0.00,736.000000,,2013-03-19 20:12:00,
2013-03-19 15:43:00,29.0,0.0,-100.00,West,280,11.0,22.0,28,0.03,,,0.03,682.000000,,2013-03-19 20:43:00,
2013-03-19 15:53:00,29.0,0.0,-100.00,West,280,11.0,22.0,28,0.03,,,0.03,682.000000,,2013-03-19 20:53:00,
2013-03-19 16:02:00,29.0,0.0,-100.00,West,280,11.0,22.0,28,0.03,,,0.03,682.000000,,2013-03-19 21:02:00,
2013-03-19 16:12:00,29.0,0.0,-100.00,West,280,11.0,22.0,28,0.03,,,0.03,682.000000,,2013-03-19 21:12:00,
2013-03-19 16:43:00,29.0,-1.0,-100.00,WNW,296,12.0,27.0,27,0.02,,,0.05,575.000000,,2013-03-19 21:43:00,
2013-03-19 16:53:00,29.0,-1.0,-100.00,WNW,296,12.0,27.0,27,0.02,,,0.05,575.000000,,2013-03-19 21:53:00,
2013-03-19 17:03:00,29.0,-1.0,-100.00,WNW,296,12.0,27.0,27,0.02,,,0.05,575.000000,,2013-03-19 22:03:00,
2013-03-19 17:12:00,29.0,-1.0,-100.00,WNW,296,12.0,27.0,27,0.02,,,0.05,575.000000,,2013-03-19 22:12:00,
2013-03-19 17:44:00,28.0,-4.0,-100.00,WNW,299,11.0,24.0,24,0.01,,,0.06,431.000000,,2013-03-19 22:44:00,
2013-03-19 17:53:00,28.0,-4.0,-100.00,WNW,299,11.0,24.0,24,0.01,,,0.06,431.000000,,2013-03-19 22:53:00,
2013-03-19 18:02:00,28.0,-4.0,-100.00,WNW,299,11.0,24.0,24,0.01,,,0.06,431.000000,,2013-03-19 23:02:00,
2013-03-19 18:12:00,28.0,-4.0,-100.00,WNW,299,11.0,24.0,24,0.01,,,0.06,431.000000,,2013-03-19 23:12:00,
2013-03-19 18:43:00,26.0,-6.0,-100.00,WNW,303,10.0,24.0,24,0.01,,,0.07,244.000000,,2013-03-19 23:43:00,
2013-03-19 18:53:00,26.0,-6.0,-100.00,WNW,303,10.0,24.0,24,0.01,,,0.07,244.000000,,2013-03-19 23:53:00,
2013-03-19 19:03:00,26.0,-6.0,-100.00,WNW,303,10.0,24.0,24,0.01,,,0.07,244.000000,,2013-03-20 00:03:00,
2013-03-19 19:13:00,26.0,-6.0,-100.00,WNW,303,10.0,24.0,24,0.01,,,0.07,244.000000,,2013-03-20 00:13:00,
2013-03-19 19:43:00,22.0,-7.0,-100.00,WNW,293,10.0,22.0,27,0.00,,,0.07,71.000000,,2013-03-20 00:43:00,
2013-03-19 19:52:00,22.0,-7.0,-100.00,WNW,293,10.0,22.0,27,0.00,,,0.07,71.000000,,2013-03-20 00:52:00,
2013-03-19 20:03:00,22.0,-7.0,-100.00,WNW,293,10.0,22.0,27,0.00,,,0.07,71.000000,,2013-03-20 01:03:00,
2013-03-19 20:12:00,22.0,-7.0,-100.00,WNW,293,10.0,22.0,27,0.00,,,0.07,71.000000,,2013-03-20 01:12:00,
2013-03-19 20:43:00,19.0,-9.0,-100.00,WNW,284,7.0,20.0,28,0.00,,,0.07,2.000000,,2013-03-20 01:43:00,
2013-03-19 20:53:00,19.0,-9.0,-100.00,WNW,284,7.0,20.0,28,0.00,,,0.07,2.000000,,2013-03-20 01:53:00,
2013-03-19 21:02:00,19.0,-9.0,-100.00,WNW,284,7.0,20.0,28,0.00,,,0.07,2.000000,,2013-03-20 02:02:00,
2013-03-19 21:12:00,19.0,-9.0,-100.00,WNW,284,7.0,20.0,28,0.00,,,0.07,2.000000,,2013-03-20 02:12:00,
2013-03-19 21:43:00,16.0,-11.0,-100.00,WNW,294,9.0,17.0,28,0.00,,,0.07,0.000000,,2013-03-20 02:43:00,
2013-03-19 21:53:00,16.0,-11.0,-100.00,WNW,294,9.0,17.0,28,0.00,,,0.07,0.000000,,2013-03-20 02:53:00,
2013-03-19 22:02:00,16.0,-11.0,-100.00,WNW,294,9.0,17.0,28,0.00,,,0.07,0.000000,,2013-03-20 03:02:00,
2013-03-19 22:12:00,16.0,-11.0,-100.00,WNW,294,9.0,17.0,28,0.00,,,0.07,0.000000,,2013-03-20 03:12:00,
2013-03-19 22:34:00,13.0,-11.0,-100.00,NW,308,10.0,22.0,33,0.00,,,0.07,0.000000,,2013-03-20 03:34:00,
2013-03-19 22:43:00,13.0,-11.0,-100.00,NW,308,10.0,22.0,33,0.00,,,0.07,0.000000,,2013-03-20 03:43:00,
2013-03-19 22:53:00,13.0,-11.0,-100.00,NW,308,10.0,22.0,33,0.00,,,0.07,0.000000,,2013-03-20 03:53:00,
2013-03-19 23:03:00,13.0,-11.0,-100.00,NW,308,10.0,22.0,33,0.00,,,0.07,0.000000,,2013-03-20 04:03:00,
2013-03-19 23:12:00,13.0,-11.0,-100.00,NW,308,10.0,22.0,33,0.00,,,0.07,0.000000,,2013-03-20 04:12:00,
2013-03-19 23:43:00,11.0,-9.0,-100.00,NW,311,9.0,21.0,40,0.00,,,0.07,0.000000,,2013-03-20 04:43:00,
2013-03-19 23:53:00,11.0,-9.0,-100.00,NW,311,9.0,21.0,40,0.00,,,0.07,0.000000,,2013-03-20 04:53:00,